Location: Chequamegon National Forest
(46.1070°N, 90.8420°W)
Time: 05:19:06
(UTC-05:00)

Daily predictions for brighter satellites

Satellite Brightness Start Highest point End
(mag) Time Altitude Azimuth Time Altitude Azimuth Time Altitude Azimuth
Cosmos 1943 Rocket 4.4 00:01:16 10° N 00:05:03 18° NE 00:08:06 12° ENE
Cosmos 1975 Rocket 3.9 00:06:13 50° N 00:06:13 50° N 00:09:38 10° N
CZ-4C R/B 3.4 00:02:11 10° NW 00:08:54 43° WSW 00:09:38 42° SW
Cosmos 2315 Rocket 3.9 00:09:01 75° SW 00:09:29 81° W 00:15:45 10° N
Cosmos 468 Rocket 4.5 00:09:23 52° W 00:09:49 54° WNW 00:15:03 10° NNE
SL-16 R/B 2.2 00:18:26 81° N 00:18:26 81° N 00:23:54 10° NNE
USA 81 4.2 00:19:33 68° NW 00:19:33 68° NW 00:24:25 10° N
Terra 4.0 00:19:36 16° W 00:19:38 17° W 00:22:40 10° NW
ATLAS 3B R/B 2.7 00:13:10 10° NW 00:20:02 67° NE 00:21:09 57° E
Cosmos 841 Rocket 3.8 00:25:53 63° NNE 00:25:53 63° NNE 00:30:14 10° NNE
Nadezhda 1 Rocket 4.4 00:26:19 49° E 00:26:19 49° E 00:32:08 10° NNE
CZ-4B R/B 4.3 00:39:53 16° NNE 00:39:53 16° NNE 00:40:48 10° N
Cosmos 2184 Rocket 3.9 00:32:22 10° N 00:38:47 90° W 00:38:56 86° S
Cosmos 2237 Rocket 3.8 00:37:35 21° W 00:40:19 30° NW 00:45:18 10° N
Cosmos 2333 Rocket 4.2 00:37:14 11° W 00:41:32 24° NW 00:46:11 10° N
Cosmos 2278 Rocket 4.3 00:38:33 10° WNW 00:41:25 15° W 00:41:25 15° W
USA 238 DEB 3.9 00:34:53 10° NW 00:41:58 70° NE 00:43:29 55° ESE
Cosmos 2327 Rocket 4.3 00:35:52 10° N 00:41:54 87° NNW 00:41:54 87° NNW
USA 238 3.9 00:34:58 10° NW 00:42:04 69° NE 00:43:36 54° ESE
Cosmos 1238 Rocket 4.4 00:45:25 44° ENE 00:45:25 44° ENE 00:50:18 10° NNE
CZ-2C R/B 2.8 00:39:32 10° NNE 00:44:34 75° NNE 00:44:34 75° NNE
Gbstr 26 Del rocket 4.5 00:41:40 23° WSW 00:47:12 83° NNW 00:55:11 10° ENE
Cosmos 371 Rocket 4.5 01:03:30 36° NW 01:03:30 36° NW 01:07:52 10° N
Cosmos 1610 Rocket 4.4 00:57:50 10° N 01:04:16 82° W 01:04:19 82° WSW
Cosmos 2341 Rocket 4.2 00:59:08 10° N 01:05:19 60° ENE 01:05:38 59° E
Cosmos 1607 4.2 00:59:33 10° NW 01:05:10 60° W 01:05:10 60° W
Meteor 2-4 Rocket 4.0 01:08:13 57° ENE 01:08:13 57° ENE 01:12:52 10° NNE
Cosmos 2074 Rocket 4.3 01:03:08 10° NNW 01:09:02 52° W 01:09:02 52° W
Cosmos 1943 3.9 01:13:25 45° ENE 01:13:25 45° ENE 01:17:54 10° NE
ATLAS CENTAUR R/B 3.2 01:15:19 27° NNW 01:15:19 27° NNW 01:18:21 10° NNE
NOSS 2-3 (D) 4.4 01:16:27 61° NNW 01:16:27 61° NNW 01:21:51 10° NE
Cosmos 2154 Rocket 3.9 01:11:50 10° N 01:18:09 84° W 01:18:09 84° W
Meteor 1-13 Rocket 4.4 01:19:59 69° WNW 01:19:59 69° WNW 01:25:47 10° N
Cosmos 2263 4.3 01:19:11 10° NNW 01:24:57 73° ENE 01:24:57 73° ENE
CZ-2C R/B 4.4 01:26:56 26° WNW 01:26:56 26° WNW 01:29:55 10° NNW
Meteor 1-19 Rocket 4.4 01:27:19 66° WNW 01:27:19 66° WNW 01:33:03 10° N
USA 267 4.3 01:28:15 10° E 01:34:22 44° NNE 01:40:30 10° NW
Cosmos 1603 4.0 01:36:32 58° WNW 01:36:39 58° WNW 01:42:20 10° NNE
Cosmos 44 4.2 01:33:09 10° NNW 01:36:25 40° N 01:36:25 40° N
Cosmos 2058 Rocket 4.2 01:33:31 10° N 01:36:44 40° NE 01:36:44 40° NE
Cosmos 2369 Rocket 2.5 01:32:54 10° NNW 01:37:32 57° WNW 01:37:32 57° WNW
NOSS 3-4 (A) 4.3 01:42:48 38° ESE 01:42:48 38° ESE 01:48:21 10° NE
NOSS 3-4 (C) 4.3 01:42:54 37° ESE 01:42:54 37° ESE 01:48:27 10° NE
ATLAS 2AS CENTAUR R/B 3.4 01:39:39 37° WSW 01:42:50 58° NW 01:50:53 10° NE
Cosmos 1943 Rocket 2.1 01:44:01 10° NNW 01:49:35 81° NE 01:49:35 81° NE
Cosmos 1892 Rocket 4.5 01:51:12 48° NE 01:51:12 48° NE 01:54:34 10° NNE
NOSS 3-2 (A) 3.9 01:45:56 10° NW 01:53:24 88° SW 01:55:54 49° SE
Cosmos 773 Rocket 4.1 02:03:36 66° ENE 02:03:36 66° ENE 02:08:20 10° NNE
SL-16 R/B 4.4 02:00:16 13° WNW 02:03:10 18° NW 02:07:04 10° N
Cosmos 2218 Rocket 3.8 01:57:35 10° N 02:03:51 85° E 02:04:25 75° SSE
Cosmos 2181 Rocket 4.0 02:03:59 68° WSW 02:04:33 72° W 02:11:01 10° N
Cosmos 2366 rocket 3.9 01:58:27 10° N 02:04:47 78° E 02:05:39 66° SE
ATLAS 3B R/B 3.9 02:04:38 10° NW 02:08:23 25° W 02:08:23 25° W
Cosmos 2228 3.8 02:07:33 10° N 02:10:52 50° N 02:10:52 50° N
Cosmos 864 Rocket 4.4 02:06:24 10° N 02:12:46 84° E 02:13:42 67° SSE
COSMOS 2406 4.4 02:13:26 30° ESE 02:14:02 31° ESE 02:19:01 10° NE
SL-16 R/B 4.1 02:08:49 10° ESE 02:14:07 31° ENE 02:19:23 10° N
SL-8 Rocket 3.9 02:09:34 10° NNW 02:15:41 67° W 02:15:57 66° WSW
Cosmos 1066 Rocket 4.3 02:18:16 60° ESE 02:18:32 61° E 02:23:49 10° NNE
Cosmos 292 Rocket 3.9 02:20:57 70° NNW 02:20:57 70° NNW 02:25:23 10° NNE
RESURS DK-1 3.9 02:23:04 28° E 02:23:04 28° E 02:25:51 10° NE
Meteor 1-22 Rocket 4.5 02:17:06 10° N 02:22:36 59° ENE 02:23:36 50° ESE
Cosmos 1656 Rocket 3.6 02:22:26 10° NNW 02:27:53 76° ENE 02:28:44 62° SE
BREEZE-M DEB (TANK) 3.3 02:28:59 52° ESE 02:28:59 52° ESE 02:37:15 10° ENE
COSMOS 2455 2.7 02:26:44 10° NNW 02:32:48 88° ENE 02:34:22 52° SE
H-2A R/B 4.1 02:31:28 10° N 02:33:45 24° NW 02:33:45 24° NW
USA 215 3.1 02:36:46 10° NE 02:43:21 86° SE 02:45:10 52° SW
PSLV R/B 4.2 02:42:06 10° N 02:46:19 47° WNW 02:46:19 47° WNW
Cosmos 2056 Rocket 4.3 02:41:40 10° NNW 02:46:53 50° ENE 02:50:14 21° SE
AQUA 4.1 02:46:23 10° NNE 02:51:06 56° E 02:51:43 51° SE
Cosmos 724 4.4 02:46:19 10° NW 02:52:06 54° WSW 02:52:06 54° WSW
Cosmos 1953 3.9 02:49:14 10° N 02:52:51 32° ENE 02:54:07 26° ESE
Cosmos 1680 Rocket 3.3 02:52:25 72° SSW 02:53:00 88° WNW 02:58:18 10° NNE
Cosmos 1812 Rocket 3.5 02:49:53 10° N 02:54:07 81° NW 02:54:07 81° NW
CBERS-1 4.1 02:49:17 10° NNE 02:54:24 68° ESE 02:55:18 56° SSE
Nadezhda 3 Rocket 4.0 02:53:45 47° S 02:55:42 79° E 03:02:04 10° N
Cosmos 1943 4.4 02:55:13 27° W 02:56:45 30° NW 03:01:44 10° N
Resurs 1-4 Rocket 3.3 02:53:02 10° NNE 02:57:52 36° E 03:00:03 25° SE
Cosmos 1544 3.7 02:56:58 10° N 03:00:26 54° ENE 03:00:26 54° ENE
UNK 4.4 02:59:12 30° SE 03:01:08 51° ENE 03:05:35 10° N
ADEOS Rocket 3.9 02:58:27 10° NNE 03:04:17 45° E 03:08:02 23° SSE
NOSS 3-2 (C) 4.2 02:57:29 10° NW 03:04:37 48° WSW 03:06:30 41° SSW
NPP 3.6 03:00:08 10° NNE 03:05:34 89° WNW 03:06:47 56° SSW
SL-27 R/B 3.2 03:07:54 50° E 03:07:54 50° E 03:11:07 10° NNE
CENTAUR R/B 3.1 03:00:35 10° NW 03:08:25 83° NE 03:16:51 10° SE
IRS-1D 4.3 03:05:25 10° NNE 03:10:27 47° E 03:12:41 30° SSE
Cosmos 1758 3.8 03:07:00 10° N 03:11:04 57° E 03:11:58 45° SE
ADEOS 4.3 03:07:18 10° NNE 03:12:19 46° E 03:14:35 29° SSE
Meteor 1-21 4.1 03:13:29 49° S 03:15:06 90° W 03:20:45 10° N
CZ-2D R/B 2.7 03:10:08 10° NNE 03:15:18 49° E 03:17:37 29° SSE
Meteor 1-4 Rocket 3.6 03:12:10 10° NNW 03:14:50 37° NW 03:14:50 37° NW
USA 267 3.1 03:10:30 10° SE 03:17:04 86° SW 03:23:40 10° NW
Meteor 2-8 Rocket 4.4 03:15:04 41° S 03:17:22 89° E 03:23:34 10° N
ARIANE 5 R/B 3.2 03:12:26 10° NNE 03:17:33 50° E 03:19:53 29° SSE
Helios 1A Rocket 4.4 03:15:00 10° N 03:18:11 24° WNW 03:18:11 24° WNW
Cosmos 1626 Rocket 4.3 03:22:49 37° WNW 03:22:49 37° WNW 03:26:54 10° N
Cosmos 1371 Rocket 4.0 03:17:35 10° NNW 03:22:55 66° WSW 03:24:31 44° S
Cosmos 1271 Rocket 2.5 03:20:12 10° N 03:23:58 82° E 03:24:14 75° SE
Cosmos 1805 3.1 03:23:55 10° NNW 03:27:51 73° W 03:27:59 73° WSW
NOSS 2-2 (D) 3.9 03:31:44 45° SSE 03:32:37 54° ESE 03:37:13 10° NE
Cosmos 1943 Rocket 4.1 03:29:26 10° WNW 03:31:05 14° WNW 03:31:05 14° WNW
Cosmos 1825 Rocket 3.5 03:32:05 53° SSW 03:33:08 86° WNW 03:37:33 10° N
NOSS 3-4 (A) 4.0 03:30:13 29° WSW 03:33:12 51° NW 03:39:38 10° NNE
NOSS 3-4 (C) 4.0 03:30:19 30° WSW 03:33:18 51° NW 03:39:44 10° NNE
Aureole 1 Rocket 4.0 03:32:46 34° W 03:33:33 36° WNW 03:37:20 10° N
Lacrosse 5 rocket 1.8 03:32:38 49° S 03:33:39 63° SE 03:38:17 10° NE
Cosmos 1821 Rocket 3.9 03:31:45 10° NNW 03:37:48 65° W 03:40:47 31° SSW
SL-08 R/B 4.1 03:41:41 32° W 03:41:41 32° W 03:45:56 10° NNW
COSMOS 2487 4.3 03:41:35 19° SE 03:43:09 26° ESE 03:46:12 10° NE
Cosmos 1842 3.7 03:44:23 42° W 03:44:37 43° WNW 03:48:21 10° N
Cosmos 2082 Rocket 3.9 03:41:12 10° SSE 03:45:54 27° ESE 03:50:37 10° NE
Cosmos 1818 3.7 03:45:42 33° SSW 03:48:08 72° ESE 03:53:36 10° NE
IRS-1C 4.4 03:43:04 10° N 03:48:17 54° WNW 03:50:24 34° SW
Cosmos 839 Rocket 4.1 03:42:05 10° NW 03:48:22 81° WSW 03:55:43 10° SSE
NOSS 2-2 (C) 3.5 03:49:35 43° SSW 03:50:55 81° SE 03:55:41 10° NE
GEOS 3 Rocket 3.7 03:50:12 10° NE 03:55:30 73° SE 03:58:22 28° SSW
Okean O Rocket 4.2 03:52:41 10° NE 03:55:38 17° E 03:58:34 10° SE
Cosmos 1934 Rocket 4.1 03:49:51 10° NNW 03:56:02 61° W 04:00:17 21° SSW
SL-16 R/B 2.7 03:53:55 24° SSW 03:57:28 51° W 04:03:29 10° NNW
COSMOS 2406 3.8 03:55:30 28° WSW 03:58:09 46° WNW 04:03:41 10° NNE
Cosmos 1605 Rocket 3.9 03:52:20 10° N 03:58:35 82° W 04:04:30 11° S
ADEOS II 4.3 03:55:57 10° NE 04:00:01 22° E 04:04:04 10° SE
RESURS DK-1 3.7 03:58:58 24° W 04:00:12 28° NW 04:03:49 10° N
MOZ.5/SAFIR/RUBIN 5/SL-8 3.7 04:00:33 10° SSE 04:05:13 90° E 04:09:57 10° NNW
Cosmos 1707 2.9 04:05:09 22° S 04:07:32 69° E 04:11:24 10° NNE
Meteor 1-16 Rocket 4.5 04:03:01 10° N 04:08:24 65° ENE 04:13:40 10° SSE
Abrixas 3.1 04:08:18 28° WNW 04:09:29 49° N 04:12:14 10° E
USA 161 1.5 04:08:36 23° SSE 04:10:17 77° ENE 04:13:05 10° N
Cosmos 1378 3.9 04:08:44 14° SSE 04:11:44 49° E 04:15:22 10° NNE
Tiangong 1 3.3 04:15:54 12° SSE 04:15:54 12° SSE 04:16:14 10° SSE
Orbus 7S? 2.7 04:11:08 10° NW 04:15:09 87° NE 04:17:48 10° SE
Cosmos-2242 3.0 04:11:53 10° NNW 04:16:15 63° W 04:19:40 16° S
Cosmos 1470 2.9 04:13:35 10° NNW 04:17:24 52° W 04:19:35 23° SSW
COSMOS 2455 4.3 04:14:16 10° WNW 04:17:26 17° W 04:17:26 17° W
Cosmos 389 Rocket 2.7 04:16:38 10° NNW 04:20:10 49° W 04:22:01 24° SSW
Cosmos 2098 Rocket 2.3 04:18:26 10° NNW 04:21:17 46° W 04:22:03 35° SW
Cosmos 921 Rocket 4.1 04:19:02 10° NW 04:22:48 27° W 04:24:01 23° SW
Cosmos 1842 Rocket 3.8 04:19:36 10° N 04:24:01 71° E 04:28:26 10° SSE
USA 215 4.1 04:19:56 10° NE 04:26:03 44° NNW 04:32:09 10° W
Cosmos 1758 Rocket 4.4 04:26:10 23° WSW 04:28:05 33° WNW 04:32:02 10° N
Cosmos 1953 3.7 04:26:03 10° NW 04:29:06 21° W 04:29:50 20° WSW
Cosmos 2100 Rocket 4.1 04:25:26 10° N 04:31:40 80° E 04:37:49 10° S
UNKNOWN OBJECT B 3.1 04:29:28 10° N 04:33:21 52° WNW 04:36:05 19° SW
Intercosmos 25 4.3 04:27:38 10° NNW 04:35:13 67° W 04:39:46 10° S
Cosmos 2173 Rocket 4.2 04:29:16 10° N 04:35:36 79° E 04:41:48 10° SSE
Cosmos 2221 4.0 04:31:45 10° N 04:35:47 38° ENE 04:39:46 10° SE
Resurs 1-4 Rocket 3.0 04:32:57 10° N 04:37:39 34° WNW 04:41:08 16° WSW
Meteor 1-24 Rocket 4.0 04:37:49 10° S 04:43:16 71° E 04:48:59 10° NNE
Cosmos 1733 4.3 04:41:09 10° NNW 04:44:19 25° W 04:46:15 17° SW
CZ-2D R/B 3.8 04:41:00 10° N 04:44:54 46° WNW 04:48:02 15° SW
ADEOS Rocket 3.9 04:44:20 10° N 04:49:41 35° WNW 04:54:59 12° SW
Cosmos 1697 Rocket 2.6 04:46:18 10° NNW 04:51:57 81° WSW 04:57:33 10° SSE
Cosmos 972 Rocket 4.4 04:47:23 10° NNW 04:53:57 88° WSW 04:59:43 10° SSE
CZ-2D R/B 3.3 04:50:47 10° N 04:55:04 26° WNW 04:58:58 12° WSW
ARIANE 5 R/B 3.8 04:52:08 10° N 04:56:21 25° WNW 05:00:15 11° WSW
CENTAUR R/B 3.9 04:52:07 10° WNW 04:58:37 28° WSW 05:05:22 10° SSW
PSLV R/B 3.9 04:54:30 10° NNE 04:58:37 89° W 05:02:46 10° SSW
GENESIS II 4.3 04:56:06 10° NW 05:00:07 86° NE 05:04:02 10° SE
USA 267 4.1 04:55:20 10° S 05:00:39 26° SW 05:06:01 10° WNW
Cosmos 2278 4.3 04:56:06 10° NW 05:01:14 35° WSW 05:06:19 10° S
Cosmos 2061 Rocket 4.0 04:56:27 10° NNW 05:02:40 72° W 05:08:49 10° S
Cosmos 1452 Rocket 4.4 04:59:11 10° NW 05:03:36 28° W 05:08:00 10° SSW
EXPRESS MD2 3.8 05:01:41 10° WNW 05:06:25 35° SW 05:09:08 10° SSE
Cosmos 2369 4.5 05:04:32 10° NW 05:09:30 31° WSW 05:14:26 10° SSW
Lacrosse 5 rocket 2.8 05:08:55 10° W 05:13:13 35° NNW 05:17:28 10° NE
Cosmos 2016 Rocket 4.0 05:07:32 10° NNW 05:13:47 76° W 05:20:05 10° S
EO 1 Del DPAF 3.2 05:12:09 10° SSE 05:16:00 83° WSW 05:19:54 10° NNW
Cosmos 2123 Rocket 4.3 05:10:45 10° S 05:17:02 75° E 05:23:19 10° NNE
Cosmos 2322 Rocket 3.8 05:11:57 10° NNW 05:17:19 41° NE 05:22:40 10° SE
COSMOS 2487 4.0 05:15:44 10° WSW 05:18:36 22° WNW 05:21:29 10° N
Cosmos 1674 3.8 05:16:12 10° SSE 05:19:51 47° E 05:23:34 10° NNE
Cosmos 1656 4.2 05:15:15 10° NW 05:20:06 34° WSW 05:24:56 10° S
Okean 3 Rocket 3.6 05:15:56 10° S 05:20:20 86° W 05:24:49 10° N
MOS 1 Rocket 4.2 05:20:27 10° N 05:24:10 28° WNW 05:27:59 10° SW
Meteor PRIRODA 4.4 05:21:53 10° NNE 05:25:33 56° E 05:29:09 10° S
Cosmos 1833 Rocket 2.9 05:20:49 10° SW 05:26:19 58° WNW 05:31:54 10° NNE
Cosmos 1980 Rocket 2.2 05:20:54 10° NNW 05:26:36 72° WSW 05:32:13 10° SSE
Cosmos 1048 Rocket 4.3 05:21:46 10° SW 05:26:46 52° WNW 05:31:47 10° NNE
